Location: Blue Mountain Vista Observatory
(40.6992°N, 75.9422°W)
Time: 22:03:37
(UTC-04:00)

IDEFIX/ARIANE 42P - Visible Passes

Search period start: 20 September 2014 00:00
Search period end: 30 September 2014 00:00
Orbit: 787 x 803 km, 98.3° (Epoch: 18 September)

Date Brightness Start Highest point End Pass type
(mag) Time Alt. Az. Time Alt. Az. Time Alt. Az.
20 Sep 2.6 20:18:11 10° SSE 20:23:16 59° ENE 20:28:24 10° N visible
20 Sep 5.1 22:00:03 10° SW 22:03:15 16° W 22:06:30 10° NW visible
21 Sep 3.3 19:50:42 10° SE 19:55:18 33° ENE 19:59:56 10° N visible
21 Sep 4.2 21:30:36 11° SSW 21:34:53 30° W 21:39:27 10° NW visible
22 Sep 4.0 19:23:52 10° ESE 19:27:28 19° ENE 19:31:05 10° NNE visible
22 Sep 3.2 21:02:17 14° S 21:06:37 55° W 21:11:46 10° NNW visible
23 Sep 2.5 20:33:59 14° SSE 20:38:28 82° ENE 20:43:44 10° N visible
23 Sep 5.4 22:17:08 10° WSW 22:18:42 11° W 22:20:17 10° WNW visible
24 Sep 2.9 20:05:41 11° SE 20:10:27 45° ENE 20:15:25 10° N visible
24 Sep 4.7 21:46:31 11° SW 21:50:15 22° W 21:54:13 10° NW visible
25 Sep 3.6 19:38:17 10° ESE 19:42:32 26° ENE 19:46:48 10° N visible
25 Sep 3.8 21:18:13 16° SSW 21:21:55 39° W 21:26:49 10° NNW visible
26 Sep 2.7 20:49:55 19° S 20:53:43 72° WSW 20:58:58 10° NNW visible
27 Sep 2.5 20:21:37 17° SSE 20:25:37 64° ENE 20:30:49 10° N visible
27 Sep 5.2 22:02:41 10° SW 22:05:40 15° W 22:08:40 10° NW visible
28 Sep 3.2 19:53:19 12° SE 19:57:38 35° ENE 20:02:23 10° N visible
28 Sep 4.3 21:34:09 16° SW 21:37:16 28° W 21:41:44 10° NW visible
29 Sep 3.9 19:26:00 10° ESE 19:29:47 21° ENE 19:33:35 10° NNE visible
29 Sep 3.3 21:05:52 23° SSW 21:08:59 51° W 21:14:06 10° NNW visible
